Theta_e
347 347 347 347 348 350 352 353 353 353 353 352 353 353 352 352 351 350 349 347 346 349 350 349 349 350 350 350 350 351 351 349 349 350 351 350 348 346 346 346 347 347 347 348 347 347 347 347 347 349 351 351 351 352 352 352 353 352 351 350 349 352 354 353 349 345 344 345 344 343 342 342 341 342 344 345 344 343 341 341 342 342 342 342 342
346 346 346 347 348 350 352 353 353 353 353 353 353 353 352 352 351 349 347 347 347 348 349 350 350 350 350 350 351 351 352 351 351 351 351 351 347 346 347 347 347 348 348 349 348 347 347 347 347 348 351 351 350 351 350 350 353 353 352 352 352 352 354 352 348 347 347 345 344 344 345 344 341 342 344 345 345 343 341 341 340 341 343 342 341
346 345 346 347 349 350 352 352 353 353 353 353 353 353 352 352 351 349 347 347 348 347 347 349 350 349 349 350 351 351 351 351 350 349 350 351 349 347 347 347 347 348 348 348 348 348 347 347 348 349 350 351 352 352 351 352 354 354 353 353 353 353 353 352 348 347 347 347 346 345 347 347 344 346 347 345 345 344 343 342 341 341 341 341 340
346 344 345 346 348 350 352 353 352 353 354 353 353 353 353 352 350 348 347 348 348 347 346 347 347 346 346 346 347 347 347 346 347 348 349 351 350 348 347 347 347 349 349 348 348 348 348 347 349 350 351 350 351 352 353 355 355 356 355 354 353 354 354 353 352 350 348 348 350 349 349 348 346 348 349 346 344 344 343 341 340 340 341 340 340
346 344 344 346 348 350 351 352 352 353 353 353 353 353 353 352 349 347 348 348 347 346 346 346 346 346 347 347 346 346 346 346 348 350 350 351 351 350 349 347 347 350 350 348 349 349 348 349 350 351 352 350 351 353 354 355 355 356 356 354 356 356 354 355 354 353 350 347 351 352 350 349 348 347 348 348 345 343 343 341 339 338 340 341 340
345 344 344 345 347 350 351 352 352 352 353 352 352 352 352 352 349 348 348 347 346 346 346 346 347 348 349 351 350 350 350 350 350 351 351 351 352 352 351 348 347 350 350 349 350 351 350 351 351 353 353 351 351 352 353 354 355 356 356 356 358 356 355 358 355 353 351 347 349 352 351 351 352 351 349 350 349 345 344 343 341 340 340 340 340
344 344 344 345 346 349 351 352 352 352 352 352 352 352 352 351 349 348 348 346 346 346 346 347 348 349 351 352 352 352 351 351 350 349 350 351 351 352 351 350 348 350 352 350 350 352 352 352 352 353 353 353 352 352 353 356 356 356 355 355 356 353 355 359 357 355 354 352 350 351 351 350 352 354 351 351 351 348 347 345 344 344 343 342 342
344 343 343 344 346 348 350 351 351 351 352 352 352 351 351 350 349 348 348 346 346 346 347 347 349 350 351 353 353 352 352 351 348 347 348 348 349 350 351 351 349 349 351 350 348 351 352 352 352 353 353 353 353 353 355 356 356 355 354 354 354 353 355 358 357 357 356 354 352 351 350 348 349 351 350 350 351 350 348 347 347 346 346 347 346
344 342 342 344 345 348 349 350 350 350 351 352 351 351 350 349 348 348 349 347 346 347 347 347 348 350 351 353 353 351 351 351 348 347 346 346 347 347 348 350 349 347 348 348 348 351 352 352 352 352 353 353 354 356 356 356 355 354 353 354 355 355 355 354 357 358 357 356 355 353 352 350 349 350 349 350 350 349 348 347 348 348 348 349 349
343 342 343 344 345 347 347 349 350 350 351 351 351 351 350 349 348 348 349 348 347 347 347 347 348 349 351 352 352 351 350 350 349 347 346 346 346 347 346 347 348 346 347 347 346 349 351 352 352 353 354 354 355 355 356 355 354 353 354 354 354 356 356 355 358 358 357 357 356 354 354 353 351 351 349 349 349 349 348 346 347 349 348 350 351
342 342 343 344 344 346 347 348 350 349 350 351 351 352 351 349 348 348 348 349 348 347 348 348 348 349 350 351 351 350 350 350 349 347 347 346 346 346 346 346 346 345 346 347 346 348 350 351 353 353 354 354 354 354 356 356 355 356 356 354 353 355 356 357 358 357 357 358 356 355 355 353 352 352 352 352 351 351 349 347 348 350 349 350 352
343 343 342 344 345 346 347 348 349 349 349 350 350 351 352 350 348 347 348 349 348 348 348 348 349 350 350 350 350 350 350 350 350 349 348 347 346 346 345 345 346 344 344 345 346 347 348 349 351 351 351 353 353 354 355 355 355 356 355 354 355 355 356 357 357 357 358 358 357 356 356 353 352 352 351 353 354 353 352 350 350 352 351 351 351
343 344 341 343 346 347 347 347 349 350 350 350 350 351 352 351 349 347 348 348 348 348 349 349 350 350 350 350 351 351 350 350 350 350 349 347 347 346 344 344 345 345 345 344 344 347 346 346 346 346 349 353 353 353 354 354 355 355 355 356 356 356 356 357 357 357 358 358 357 357 356 354 354 353 351 352 353 354 354 353 353 353 352 351 352
343 343 341 342 346 347 347 348 349 350 349 349 350 350 352 351 350 348 348 348 347 348 349 349 350 350 351 351 351 351 351 351 351 350 349 347 345 344 345 345 345 347 348 345 344 346 346 345 342 343 349 353 353 352 352 353 355 355 355 356 357 355 354 355 357 359 358 358 357 357 356 355 355 355 354 352 352 352 353 353 355 355 352 351 353
343 342 340 342 346 347 348 349 349 349 349 349 350 350 352 352 351 349 348 348 348 348 349 349 350 351 351 351 351 350 350 350 351 351 349 346 344 343 345 346 347 347 348 347 345 344 345 344 341 342 349 353 353 352 352 353 355 355 355 355 356 356 353 354 358 359 358 358 357 357 356 355 355 356 355 354 353 352 352 354 356 356 354 353 354
344 342 340 342 345 347 348 349 349 349 350 349 350 351 352 352 351 350 349 348 348 348 349 349 350 351 351 351 351 351 350 351 351 351 350 347 345 345 345 347 347 348 349 348 347 345 345 345 343 346 350 350 352 352 353 354 353 354 356 355 356 357 355 355 358 359 358 357 357 357 356 355 356 357 356 356 356 354 354 355 356 357 357 356 355
347 343 340 341 344 346 348 348 348 349 350 350 350 351 351 352 352 351 351 350 349 348 349 350 350 351 351 351 351 351 351 352 352 352 352 350 348 348 348 348 347 348 349 349 349 348 347 346 345 349 350 349 351 353 353 353 352 355 357 356 356 358 356 356 358 359 358 357 356 357 356 355 355 357 357 357 356 354 354 355 356 357 359 358 357
352 347 341 341 343 345 347 348 348 349 350 350 351 351 350 351 351 352 352 352 350 350 350 351 351 351 351 351 352 352 352 353 354 353 353 352 351 350 350 349 349 349 350 349 350 350 350 347 345 349 351 351 352 353 353 353 353 355 357 356 357 357 356 357 358 358 358 358 357 357 356 356 355 356 357 357 357 356 356 358 358 358 358 359 359
354 350 344 342 343 345 346 348 349 350 350 351 351 351 351 351 352 352 352 351 351 351 353 353 352 352 353 352 352 352 352 352 353 353 353 352 352 352 351 351 350 350 350 350 350 350 351 349 347 349 353 353 352 352 353 353 354 356 358 358 357 356 355 357 358 358 358 358 358 357 357 357 355 356 357 358 359 359 359 359 359 360 359 359 360
355 353 348 345 344 345 347 349 350 351 351 351 351 351 351 352 352 352 352 352 352 352 353 354 353 354 353 352 352 351 350 351 351 352 352 353 353 353 353 352 351 351 351 350 351 351 351 351 350 352 355 355 354 354 355 355 354 356 357 358 359 358 357 358 358 358 357 357 358 358 358 357 357 357 357 358 359 359 359 360 359 360 360 359 360
355 354 352 349 345 344 346 348 350 351 351 352 352 352 353 353 353 353 353 353 353 353 354 354 354 354 354 352 351 351 350 351 352 352 352 353 353 352 352 353 352 352 352 352 351 352 352 351 352 354 355 355 354 354 356 356 355 355 356 357 358 359 358 359 359 358 358 358 358 358 358 358 357 357 358 358 358 358 359 359 359 359 359 359 360
352 353 353 352 349 346 346 347 348 351 351 351 353 353 354 354 354 354 353 353 353 353 354 354 354 354 354 353 352 352 351 352 353 354 354 354 354 353 352 352 353 353 353 353 353 353 352 352 353 354 354 355 354 353 356 358 357 357 357 357 358 359 359 360 359 359 359 359 358 358 358 358 358 358 358 357 356 357 358 358 358 358 358 358 359
352 353 353 352 349 346 347 347 348 350 351 352 353 354 354 355 355 355 355 354 354 354 354 355 355 354 354 354 354 353 352 352 354 355 355 355 355 355 353 353 355 356 355 353 353 354 353 351 352 353 353 354 354 354 357 358 357 356 357 358 359 360 360 360 360 359 359 359 358 358 358 358 358 358 358 357 356 357 358 357 357 358 357 358 358
351 352 352 350 348 346 348 349 347 347 350 352 353 354 354 355 355 355 355 355 354 354 355 355 356 355 355 355 355 355 354 354 354 354 355 355 355 355 355 355 356 356 356 354 352 354 353 351 352 353 353 354 356 356 357 357 356 356 357 358 359 359 360 360 360 360 359 359 358 358 358 357 358 359 358 358 356 357 358 357 357 359 359 359 360
349 349 350 350 350 348 348 349 347 347 348 352 353 353 354 355 355 354 355 355 354 353 354 355 356 356 356 356 356 356 355 355 354 354 355 355 355 356 356 356 356 356 356 355 354 353 353 351 353 354 355 355 356 356 356 357 358 358 357 359 359 360 360 360 360 360 360 360 359 359 358 358 359 360 359 358 358 357 358 358 358 359 360 359 360
349 348 349 350 351 349 347 347 347 348 348 349 351 352 353 354 355 355 354 354 354 353 353 355 355 356 357 356 356 356 356 356 355 355 355 355 355 355 356 355 356 355 355 356 355 355 354 354 354 355 356 356 356 356 355 356 357 358 358 358 359 359 360 360 360 360 360 360 360 360 359 359 359 359 359 358 359 359 359 359 359 359 360 360 360
347 348 347 348 350 349 348 346 346 347 348 350 351 352 352 352 353 353 353 354 353 353 353 352 352 354 356 356 354 354 356 356 356 356 356 356 355 355 355 355 355 355 355 356 356 356 356 356 356 356 357 356 355 355 355 355 356 357 358 358 359 359 360 360 360 360 360 360 359 359 359 359 359 359 359 359 359 360 359 359 360 360 360 360 358
346 346 346 347 348 349 349 348 347 347 348 348 349 351 353 353 352 351 352 354 353 353 353 352 350 352 355 355 354 354 356 356 357 357 356 356 356 355 355 355 355 356 356 356 356 356 356 357 357 357 356 356 356 356 356 355 355 356 357 358 359 359 359 360 359 360 359 359 359 359 358 358 359 359 359 359 359 360 359 359 359 360 360 360 359
347 346 346 347 347 347 348 348 349 348 348 348 347 348 350 352 353 353 352 353 354 353 353 353 353 352 353 354 354 355 356 356 356 357 356 356 356 356 355 355 355 355 355 355 356 355 356 357 357 357 356 357 357 357 357 356 355 355 356 358 359 359 359 359 360 360 359 359 359 358 358 358 358 358 357 358 358 358 358 359 360 361 361 361 360
346 346 346 345 345 346 346 346 347 347 347 349 349 348 348 349 351 353 353 352 353 354 353 354 354 354 354 354 353 353 355 356 356 355 355 356 356 356 355 355 355 355 355 356 356 355 356 356 357 357 357 357 358 357 356 355 355 355 356 357 358 358 357 358 359 359 359 359 358 358 357 357 357 357 356 356 357 356 357 358 358 360 361 362 363
343 343 343 342 341 342 342 343 343 343 344 346 347 349 349 348 349 350 351 352 352 353 355 354 354 355 355 355 353 353 355 356 356 355 355 355 355 356 356 356 355 356 356 355 355 356 355 355 356 357 358 358 358 356 354 354 355 354 355 356 357 357 357 357 358 359 359 359 358 358 357 357 357 357 357 357 357 356 356 356 356 356 358 360 361
340 339 339 339 338 339 339 339 339 340 341 342 344 346 348 349 349 348 348 349 350 351 353 354 354 354 355 354 353 352 354 356 355 354 354 355 354 354 355 355 355 356 355 355 355 356 356 355 356 357 357 358 358 356 354 354 354 354 354 355 356 358 358 358 359 359 359 359 359 358 357 357 357 358 358 358 357 356 356 355 355 355 354 354 355
338 337 336 336 336 337 337 336 336 337 337 339 340 343 346 348 349 349 349 349 349 350 351 352 353 353 353 352 351 351 353 354 352 350 350 353 353 353 354 354 354 354 354 354 354 355 356 355 355 356 356 357 357 356 354 352 353 353 353 354 356 357 358 358 359 359 359 359 359 359 358 358 357 358 358 356 355 355 354 353 354 354 353 352 350
335 334 333 334 335 335 335 334 333 334 335 336 338 341 344 346 347 348 349 349 350 350 351 351 351 351 351 351 351 351 351 351 350 348 348 350 351 353 353 353 354 354 353 353 353 353 354 353 353 354 354 355 356 355 353 352 352 352 353 353 354 355 356 358 359 359 359 359 359 359 359 359 360 359 357 355 354 354 352 353 354 353 353 353 350
332 332 332 332 333 333 333 332 332 332 333 335 336 337 339 340 342 344 345 346 348 348 349 350 350 350 350 349 349 349 348 348 348 347 348 348 348 350 351 352 352 352 351 351 352 352 352 352 353 354 354 355 355 354 353 352 352 352 353 353 354 355 357 359 359 359 358 358 358 359 359 359 359 357 355 354 355 354 352 353 356 355 356 358 355
331 331 331 331 330 330 330 331 330 331 331 332 333 335 336 337 338 339 341 343 345 345 347 348 348 348 348 348 348 347 346 346 346 346 347 346 345 347 350 350 349 348 346 346 348 350 350 351 351 352 352 352 352 351 350 350 351 352 352 353 353 355 357 358 359 359 358 357 356 357 358 358 357 355 354 354 354 354 353 355 357 356 357 358 356
330 330 329 329 329 329 329 329 329 329 330 330 330 332 334 335 335 336 338 340 342 343 344 345 346 346 346 346 346 346 345 345 345 345 346 345 344 345 347 345 344 344 345 344 346 348 349 349 349 350 349 349 349 348 348 348 350 351 352 352 353 354 356 357 357 357 356 355 355 355 356 356 355 354 353 352 351 353 353 354 355 354 355 358 356
329 329 329 328 328 328 327 328 328 328 329 328 328 330 331 332 333 335 336 337 338 340 341 343 344 344 344 345 344 344 345 345 345 345 345 344 344 344 344 342 341 342 344 344 345 347 348 347 347 348 347 347 348 349 348 348 349 349 350 350 351 352 353 354 355 355 355 354 354 354 354 355 355 354 353 352 350 351 351 353 353 352 354 358 357
329 328 327 327 327 327 326 326 327 328 328 327 327 328 329 330 332 334 334 335 336 337 338 339 341 342 343 343 343 343 344 344 344 344 343 343 344 344 343 343 343 343 344 345 345 346 346 346 346 346 346 346 348 349 348 348 348 348 348 349 349 350 351 352 352 353 353 352 352 352 352 352 352 352 353 352 351 350 349 351 353 352 353 356 357
329 328 327 326 326 325 324 325 325 326 327 326 326 326 326 328 330 331 333 333 334 336 337 338 339 340 340 340 341 341 341 342 343 343 343 343 343 344 343 343 344 345 345 346 347 347 347 347 347 348 348 348 349 349 349 348 348 348 348 348 349 350 351 351 352 352 352 352 352 352 352 351 350 349 349 349 349 350 349 349 352 352 351 353 353
328 327 327 326 325 324 323 323 323 324 326 326 326 326 326 327 327 329 330 331 332 334 335 335 336 336 336 336 336 336 337 338 338 339 341 341 342 343 343 343 344 344 344 345 346 346 347 347 346 347 348 348 348 348 347 347 346 346 347 347 347 348 349 350 351 351 351 352 351 352 352 351 349 347 347 347 348 348 349 350 351 351 350 349 348
328 327 326 325 324 323 322 321 322 323 324 325 326 327 327 327 326 327 328 329 331 331 331 331 331 331 331 331 331 331 332 333 333 335 337 338 338 339 340 342 343 344 344 344 344 345 345 344 343 344 344 344 344 344 344 344 343 343 343 343 343 344 345 346 347 348 349 349 350 350 350 349 349 347 347 346 346 347 349 350 351 351 349 346 346
327 326 325 324 323 321 320 319 319 321 322 324 325 327 327 327 326 327 327 328 328 327 327 326 326 326 326 326 325 326 326 327 328 329 331 334 336 337 338 339 341 343 344 343 343 343 342 340 338 339 339 338 338 338 338 339 339 339 339 339 340 340 340 341 342 343 345 346 346 347 347 347 348 347 347 347 346 347 349 350 350 350 347 345 346
327 326 324 323 323 321 319 317 316 316 318 320 323 325 326 326 326 326 325 325 324 323 323 323 322 322 322 321 321 321 321 322 323 323 326 331 334 336 337 338 339 340 341 340 340 338 336 334 332 332 332 332 333 334 334 334 334 335 334 333 332 331 331 331 332 335 337 338 340 341 342 343 345 346 347 347 347 347 348 348 348 348 347 347 348
326 325 324 323 323 322 320 318 316 314 314 315 318 321 322 324 325 325 324 324 323 323 322 321 320 320 319 318 318 318 318 319 320 322 327 332 334 334 334 335 336 336 336 335 334 333 331 329 327 325 325 326 327 327 327 328 328 327 326 323 321 321 321 321 321 323 326 330 334 336 337 338 340 342 345 347 347 347 347 347 347 347 347 348 347
325 325 324 323 323 321 320 320 318 316 315 314 314 316 319 321 322 323 324 324 323 323 322 321 321 320 320 319 318 316 316 317 320 325 331 334 333 332 333 333 333 333 332 331 329 328 327 326 323 322 322 323 323 322 322 322 322 321 321 319 318 318 318 319 320 320 320 324 330 333 333 334 335 338 341 343 344 344 343 343 343 345 345 345 343
323 323 322 322 322 321 321 320 318 316 315 315 314 315 318 320 321 322 323 323 322 322 322 322 322 322 322 320 318 316 315 316 319 324 330 333 332 332 331 331 329 328 328 328 326 325 325 324 323 323 323 323 322 321 319 317 317 317 317 317 316 316 316 319 323 325 324 324 326 327 329 331 332 334 336 338 338 338 337 337 337 339 340 340 340
321 321 321 322 321 320 320 320 317 312 311 312 313 314 316 319 321 321 322 324 324 322 323 323 323 322 322 320 318 317 317 316 316 319 324 327 328 329 328 327 326 325 325 325 324 323 322 322 322 322 322 322 320 318 316 314 313 313 313 314 314 315 314 316 322 327 327 326 325 324 327 330 332 333 335 335 334 333 333 334 334 335 337 337 336
323 322 322 323 321 319 319 319 316 311 309 310 311 311 312 317 321 321 321 323 325 324 323 325 324 322 322 321 319 318 318 318 316 316 316 318 320 321 321 321 321 321 321 321 320 320 318 317 317 318 318 317 317 315 314 313 313 313 314 314 314 314 314 316 323 327 327 328 328 328 329 332 333 334 335 335 334 334 333 333 334 333 333 333 332
324 323 323 324 323 322 322 320 315 312 312 312 312 310 309 313 318 321 321 321 324 325 326 326 326 325 323 322 321 319 319 318 318 317 315 314 315 315 316 316 316 316 316 316 317 317 316 315 315 315 315 314 314 314 314 315 317 318 319 318 317 317 318 321 325 326 327 330 332 332 332 333 334 334 334 333 333 332 332 331 331 330 330 329 328
323 324 325 326 325 325 325 323 319 316 315 314 314 314 312 310 313 318 320 321 323 325 326 326 327 326 324 323 323 322 320 319 318 318 317 316 315 315 315 315 315 315 315 316 316 317 316 316 316 316 315 315 315 316 317 319 321 322 322 321 321 321 323 324 325 326 329 332 334 334 334 334 334 334 333 332 331 330 329 328 328 327 326 326 326
Wind_Speed
11 11 12 13 13 13 12 11 12 12 12 15 15 15 15 15 15 15 15 16 17 14 13 13 12 12 12 11 10 9 10 11 10 9 8 8 9 10 10 9 8 7 6 5 4 4 3 3 2 2 1 1 2 3 3 3 4 5 5 5 7 7 7 7 8 7 3 2 3 4 5 6 6 6 5 4 5 5 6 6 5 5 5 5 5
9 10 11 12 12 13 12 12 14 14 13 14 15 15 16 15 15 17 18 18 18 17 15 14 13 13 13 12 10 10 10 10 9 9 8 8 11 11 10 9 8 7 6 4 4 3 2 3 3 3 2 2 3 4 4 4 4 5 5 5 6 6 6 7 7 5 2 2 3 4 5 4 3 3 3 3 4 5 6 7 7 6 6 6 6
10 10 11 13 13 14 13 13 14 14 13 14 14 15 16 16 17 17 19 19 19 18 17 15 13 13 12 11 10 9 10 10 9 10 9 8 10 11 10 9 8 7 6 4 3 3 3 3 3 2 2 3 3 3 3 3 3 4 4 5 5 5 5 6 7 5 3 2 1 2 3 2 2 3 5 5 4 4 5 5 6 6 5 6 6
11 11 11 13 14 14 14 13 13 13 13 15 15 16 16 17 19 19 19 20 19 19 18 16 15 14 12 11 10 9 10 12 11 11 10 9 9 10 10 9 8 7 6 3 2 3 3 3 2 2 3 4 3 3 2 2 3 3 3 5 5 4 4 5 6 5 3 1 1 1 1 1 1 3 5 4 4 4 5 5 5 5 5 5 5
11 12 11 12 14 15 15 14 14 14 15 17 17 17 16 18 20 20 19 20 20 19 18 17 16 14 12 10 10 9 9 10 10 9 10 10 9 9 10 10 9 8 6 4 4 3 3 3 2 3 4 4 3 3 2 2 2 2 3 4 5 5 4 3 4 5 4 3 1 1 1 1 1 4 4 2 3 5 6 6 4 3 3 5 6
11 12 11 13 15 15 15 15 16 16 16 18 18 17 16 18 21 20 20 21 21 20 19 18 17 16 14 11 10 10 9 9 10 10 10 10 9 8 10 11 10 8 7 6 5 4 4 3 3 3 3 3 3 3 2 2 2 2 2 3 4 4 4 3 3 4 4 4 3 2 2 2 2 4 3 2 2 4 5 6 6 4 1 3 5
11 11 11 13 15 15 16 17 18 18 18 17 18 18 18 19 21 21 21 22 22 21 20 19 18 17 16 13 11 11 10 10 11 11 10 10 10 9 10 11 11 10 8 8 7 6 6 5 4 4 3 3 3 3 2 2 1 1 1 2 3 3 4 4 3 3 3 3 3 3 3 3 2 2 3 2 2 2 5 5 6 6 5 3 3
11 11 11 13 16 17 18 19 20 20 18 17 19 20 21 22 22 22 21 23 24 23 22 21 20 18 17 13 12 12 11 10 12 12 11 12 12 11 10 11 13 13 11 10 10 8 7 7 6 5 4 3 3 3 3 3 2 2 2 2 2 3 3 3 4 4 3 2 2 2 3 4 4 2 2 3 2 2 3 4 4 5 5 6 5
12 12 12 15 17 19 20 20 21 20 18 20 22 22 23 24 23 22 22 23 25 24 23 23 22 20 17 14 13 14 12 11 12 12 11 12 12 12 12 11 12 14 14 13 12 10 9 8 7 6 5 4 4 3 4 4 3 3 3 3 2 2 2 2 3 4 3 3 3 2 2 2 3 2 1 1 2 2 2 2 4 3 3 5 6
12 13 14 17 19 21 21 20 20 20 19 21 21 20 23 25 24 23 23 23 25 26 25 24 23 22 19 17 15 15 14 13 13 13 13 13 13 13 12 12 11 13 14 15 15 13 11 10 8 7 6 5 5 5 5 5 5 4 4 4 3 3 2 2 2 2 3 3 3 2 1 1 1 1 1 2 2 2 3 3 3 4 3 4 6
12 13 15 18 19 20 19 19 20 19 18 18 18 19 22 25 25 25 24 24 25 26 26 25 24 23 22 20 18 17 16 15 15 15 15 15 15 14 13 12 12 12 13 15 16 15 14 13 11 9 8 7 6 6 6 5 5 5 5 5 4 3 3 3 2 2 2 2 2 2 1 1 1 1 2 3 3 2 3 4 4 5 5 4 6
12 11 12 14 15 16 17 18 18 17 17 18 19 19 21 25 27 26 25 25 25 26 27 26 26 25 24 22 20 19 18 17 17 17 17 17 16 15 15 14 13 13 13 15 16 16 16 16 14 12 10 8 7 6 6 6 6 6 6 5 5 4 4 4 3 3 3 2 2 1 1 2 2 2 2 2 3 3 3 4 4 4 4 4 5
12 11 11 12 12 15 17 18 17 17 18 20 20 19 21 25 29 29 28 28 27 26 27 28 28 27 26 24 22 20 19 19 18 18 18 18 17 16 16 15 15 14 14 15 16 15 16 17 16 14 12 9 8 7 7 7 6 6 6 5 5 5 5 5 4 4 3 3 3 2 2 3 3 3 3 3 2 2 3 4 3 3 4 4 4
11 11 12 11 13 16 18 18 19 20 21 21 21 20 20 23 28 31 30 29 29 28 28 28 29 29 27 25 23 22 21 20 19 18 18 18 18 17 16 15 15 15 14 15 15 15 15 16 16 14 13 10 9 8 8 8 7 7 7 6 6 6 7 6 5 5 4 3 3 3 3 4 4 4 4 4 4 4 4 4 3 4 4 4 3
9 11 12 12 15 18 18 18 20 21 22 22 21 21 20 22 27 32 32 31 31 30 30 30 30 29 28 26 25 24 23 21 19 18 17 17 17 17 17 16 15 15 14 14 14 15 16 16 15 14 13 11 10 10 10 9 9 9 9 8 7 7 8 7 7 6 5 5 4 4 5 5 4 4 5 5 5 5 5 4 3 3 4 4 3
10 11 12 13 15 17 17 19 20 20 21 22 21 21 22 23 27 32 33 33 33 32 32 32 31 30 29 28 26 25 24 22 20 19 18 17 17 18 17 16 16 15 14 13 12 14 15 16 15 14 13 12 12 11 11 11 11 10 10 9 8 7 8 8 7 7 7 6 5 5 5 6 5 5 5 5 5 5 4 3 3 3 3 3 3
8 9 10 11 14 16 17 19 21 20 21 22 22 24 26 26 27 30 31 31 33 34 34 33 32 31 30 30 28 27 25 23 20 19 18 19 19 19 18 18 17 16 15 14 13 13 14 15 15 14 14 13 13 12 11 11 12 11 10 10 9 8 9 9 8 8 7 7 6 6 6 6 6 6 7 6 5 4 4 4 4 3 3 2 3
6 8 9 10 13 15 17 19 21 22 23 24 25 26 28 29 29 29 29 30 32 34 33 32 33 32 31 30 29 28 26 22 20 18 18 19 19 19 19 18 18 17 16 16 15 14 14 14 16 15 14 13 13 13 12 11 12 11 11 11 10 9 10 10 9 9 9 8 8 7 7 7 7 7 7 7 6 5 4 4 4 4 4 4 3
3 4 5 7 11 16 18 19 20 22 23 24 25 25 25 26 27 26 28 30 31 29 27 28 30 29 28 30 30 30 28 24 21 20 19 19 19 18 18 19 18 18 17 17 16 16 15 14 15 16 14 13 13 13 13 12 12 11 11 10 10 11 11 11 10 10 10 9 9 8 8 8 7 7 8 7 7 6 5 5 5 5 5 5 5
1 1 0 1 5 11 17 19 20 21 22 21 22 23 23 24 24 23 24 25 25 24 24 26 27 26 26 28 30 31 31 28 25 23 21 19 19 18 17 18 18 18 17 17 16 16 16 15 14 14 13 13 13 13 12 13 13 13 12 11 10 11 12 12 11 11 10 9 9 9 9 8 8 8 8 8 8 8 7 7 7 6 7 7 6
4 4 3 2 0 5 9 13 15 16 18 18 19 20 20 21 22 22 24 24 24 23 23 25 26 25 26 29 29 31 32 30 27 24 22 21 20 19 18 17 17 18 17 17 18 17 16 16 15 14 14 13 14 14 13 13 14 15 14 14 13 13 14 13 12 12 11 10 10 11 10 10 9 9 9 9 9 9 8 8 8 8 8 8 7
6 6 5 4 3 3 6 11 13 14 15 16 17 17 18 18 18 18 20 23 23 22 22 24 25 26 27 28 27 28 31 30 26 23 22 21 20 20 20 19 17 17 17 18 18 17 17 17 16 15 15 15 15 15 14 14 14 15 15 14 13 13 14 13 13 12 12 11 11 11 11 10 10 10 10 10 10 10 9 9 8 8 8 8 8
4 5 5 5 5 5 7 11 12 13 15 16 16 16 17 17 17 15 16 18 19 18 18 19 21 23 26 25 24 25 28 29 25 22 21 21 20 20 20 20 18 16 17 18 18 16 17 18 17 17 17 16 16 16 15 15 16 16 16 14 13 12 13 13 13 12 12 11 11 11 11 11 10 10 10 11 11 10 9 9 9 8 8 8 8
3 3 3 5 7 7 6 10 13 14 14 14 15 16 16 16 17 17 17 18 18 18 16 16 18 20 20 21 21 22 24 25 24 22 22 21 19 18 19 20 18 16 16 17 17 17 17 17 17 18 18 17 16 16 15 15 16 17 16 15 14 14 13 13 13 12 12 12 11 11 11 11 10 10 10 11 11 11 10 10 9 8 8 8 7
3 2 2 3 5 6 4 5 11 15 15 13 14 16 16 17 19 20 21 21 22 22 20 16 15 16 16 17 19 20 21 22 23 22 22 22 20 18 19 20 19 17 16 16 17 17 17 17 17 17 17 17 17 17 16 16 16 16 16 15 14 14 15 14 14 13 13 12 12 12 12 11 11 10 11 10 10 10 10 10 9 8 7 7 7
5 4 3 2 2 4 4 3 5 9 13 13 14 16 17 17 19 21 23 23 23 23 22 17 14 15 16 17 18 18 19 21 23 22 21 21 21 19 19 19 19 18 17 16 16 16 17 17 18 17 17 17 17 17 17 17 16 15 16 15 15 15 15 15 14 14 14 13 13 12 12 12 12 12 11 11 10 10 10 10 10 9 8 8 8
7 7 6 5 4 3 2 2 3 4 7 9 12 14 17 18 20 21 22 23 23 24 24 22 22 22 20 21 23 22 20 20 20 21 20 19 20 19 19 18 18 18 17 16 16 16 16 17 18 18 18 17 17 17 18 18 17 16 16 16 16 15 15 15 15 14 14 14 13 13 13 13 13 13 12 12 11 11 11 11 11 10 9 9 9
8 8 8 8 6 6 5 3 2 5 7 7 8 9 10 14 18 21 22 22 24 26 26 27 29 28 25 26 27 24 22 21 19 19 19 18 18 18 18 18 17 18 17 17 16 15 16 16 16 17 18 17 18 18 18 18 18 17 17 16 16 16 15 15 15 15 15 15 14 14 14 14 13 14 14 13 12 11 11 11 11 10 10 10 10
10 10 10 10 8 7 7 7 6 6 7 9 11 12 12 11 11 15 19 22 23 24 26 27 29 30 31 29 24 23 25 25 23 22 22 20 18 17 18 18 18 18 17 17 16 15 15 15 15 16 17 17 17 17 18 18 18 17 17 16 15 15 16 15 15 15 15 15 15 15 15 15 15 15 15 15 14 13 13 13 12 11 11 11 10
11 10 10 9 10 10 10 9 8 8 9 8 9 12 14 14 12 11 13 17 20 22 25 26 27 30 31 29 26 27 29 28 26 26 25 23 20 18 18 18 19 19 18 17 17 16 15 15 14 15 16 16 16 18 19 18 17 17 17 16 16 16 17 16 16 16 16 16 16 15 16 17 18 17 17 16 16 16 16 15 14 13 13 12 11
11 10 10 10 10 12 12 12 12 13 13 11 9 9 11 13 15 14 12 13 16 19 21 23 26 27 25 22 23 25 26 25 25 25 25 24 22 20 18 19 19 19 19 20 20 18 17 16 15 15 15 15 16 19 20 19 19 19 19 18 17 17 18 18 17 17 17 16 16 16 16 17 18 18 18 17 18 18 17 17 16 15 14 14 14
11 11 11 11 11 12 14 14 14 15 15 15 13 12 10 10 13 15 16 15 16 18 19 21 23 22 19 20 22 24 24 23 22 23 24 24 24 22 21 21 20 19 20 21 20 19 19 18 16 16 16 15 15 18 20 19 20 21 20 20 18 16 16 17 17 17 17 17 17 16 16 16 16 17 17 16 15 17 18 17 18 17 16 17 16
11 11 12 11 11 12 14 15 17 18 19 18 17 15 12 10 11 13 15 16 18 20 21 22 23 21 19 21 25 26 26 23 21 22 23 23 22 22 22 22 21 21 23 23 21 19 20 20 19 18 18 16 15 18 21 21 21 21 21 21 19 16 16 16 16 16 17 17 17 17 17 16 15 16 19 18 18 19 18 17 18 19 18 17 16
11 11 11 12 12 13 14 17 21 23 22 21 20 18 14 11 8 8 9 11 15 18 20 22 23 21 19 21 22 23 23 22 20 21 23 23 21 20 20 20 19 21 23 22 21 20 21 23 22 21 20 18 16 18 22 23 23 23 22 21 20 19 19 18 17 17 17 17 17 17 17 17 15 17 21 22 22 21 19 16 18 20 18 17 16
11 11 11 12 13 15 15 17 21 22 22 23 23 21 19 18 14 11 8 7 7 11 15 19 20 19 18 20 21 20 20 21 21 20 21 24 22 22 23 21 18 19 20 20 21 21 21 22 20 17 16 14 12 14 17 21 23 23 20 20 21 21 20 18 18 19 19 19 18 17 17 18 19 21 23 23 22 21 19 18 19 18 16 15 15
11 11 12 13 13 14 15 15 18 20 22 23 23 23 23 23 21 18 15 13 11 8 8 13 18 19 19 20 21 19 17 18 18 15 15 18 18 18 19 18 14 14 15 17 20 19 18 19 18 17 16 14 13 15 15 17 21 22 20 19 20 20 20 18 18 19 20 21 21 19 19 21 23 24 23 22 22 20 18 18 17 17 15 14 15
12 13 13 13 13 14 15 16 17 19 20 21 23 25 27 27 24 23 21 19 19 17 10 1 7 12 15 16 16 15 15 16 15 12 11 11 11 10 10 10 9 9 10 12 14 13 11 12 14 16 17 17 16 17 15 14 17 19 18 17 17 17 18 18 18 19 21 23 24 23 24 23 24 24 23 21 20 19 19 19 18 18 17 13 13
12 13 13 14 14 15 17 18 18 19 19 21 24 28 30 27 23 22 25 24 23 22 18 13 9 6 9 12 12 12 13 14 12 10 7 6 6 5 5 7 9 10 10 10 10 10 9 9 12 14 15 14 11 11 12 11 13 14 12 12 13 13 14 15 16 17 20 22 24 25 26 24 24 25 25 23 21 21 23 23 20 19 18 14 13
12 12 13 13 14 16 19 20 19 18 18 21 26 30 31 29 23 21 23 22 21 21 19 17 16 14 12 12 11 10 10 9 8 7 5 3 2 3 4 5 7 8 8 6 7 10 11 12 13 15 16 13 9 10 13 13 14 16 13 10 10 10 11 13 13 14 17 19 22 24 25 25 26 26 26 26 24 24 25 24 21 20 18 15 15
11 11 11 13 15 18 19 19 18 17 17 19 25 29 29 29 25 20 19 18 18 19 18 17 17 17 15 15 13 12 10 8 8 7 5 3 2 3 4 5 6 6 5 4 4 7 9 9 9 9 10 9 8 10 13 13 15 16 15 12 10 9 11 13 13 14 15 16 18 18 19 22 23 24 25 26 25 26 26 26 25 25 22 20 18
10 10 10 12 15 16 16 17 19 19 16 17 22 25 24 25 25 21 16 15 18 20 20 20 20 20 19 19 18 17 16 15 13 11 9 7 4 3 3 5 6 7 7 6 5 6 8 8 8 7 7 6 6 8 9 10 12 13 14 14 13 11 12 13 14 14 15 16 17 17 17 19 21 22 23 23 23 25 27 27 28 29 28 25 22
10 10 10 11 12 14 15 17 20 21 18 17 19 21 20 21 22 19 15 16 18 20 21 22 22 22 22 22 21 21 21 21 19 17 14 11 7 4 3 3 4 5 6 7 6 7 7 6 5 5 5 5 5 6 6 7 8 9 10 11 11 11 13 14 15 15 16 18 19 19 20 22 24 25 24 23 23 25 24 25 27 29 30 27 21
9 10 10 10 11 12 13 14 18 20 20 19 18 18 18 19 18 16 15 17 18 19 20 20 21 21 20 19 19 20 21 20 19 18 17 14 12 9 8 6 5 3 2 3 4 6 6 6 6 6 5 4 2 1 1 2 3 4 4 5 6 7 9 11 13 13 15 17 19 22 23 23 23 23 23 24 25 24 22 25 26 26 28 27 21
8 9 9 10 10 10 11 14 17 19 20 20 19 17 18 18 17 15 15 15 15 16 18 18 18 17 17 17 17 18 18 17 17 16 16 15 14 13 12 11 9 5 3 3 4 5 7 8 8 8 8 8 6 6 5 4 4 4 4 4 5 5 6 7 8 11 12 15 18 21 23 24 24 23 22 22 24 24 25 27 27 24 25 24 22
7 8 9 10 9 9 10 13 16 18 19 20 19 18 18 17 16 16 15 14 14 16 16 17 16 16 15 16 16 17 16 17 17 17 16 15 15 15 14 13 12 10 10 10 10 10 11 11 12 13 13 11 10 9 9 8 7 7 6 6 6 7 8 8 8 9 11 13 15 17 20 22 23 24 23 23 24 25 26 27 27 27 26 25 24
7 7 8 7 8 9 10 12 14 16 17 18 18 19 18 15 15 15 15 15 15 15 16 16 17 17 17 17 17 17 17 17 17 18 17 16 16 16 16 15 15 14 14 14 15 15 14 14 14 14 13 12 11 10 9 8 7 5 5 5 5 6 7 8 8 9 10 12 13 15 16 17 16 17 18 20 21 23 23 23 24 25 26 25 25
6 6 6 6 7 8 10 11 13 15 15 15 16 17 16 14 13 14 14 14 14 14 15 16 16 17 17 17 17 17 17 18 18 18 19 19 18 18 18 17 16 14 13 13 14 14 14 13 12 11 10 10 9 9 9 8 8 7 6 6 6 6 7 8 8 9 10 10 11 12 12 11 9 8 8 10 10 12 13 15 17 18 20 21 21
5 6 6 6 7 8 9 10 11 14 15 15 15 15 15 14 13 12 12 13 13 13 14 14 14 15 15 16 16 16 17 18 18 18 19 20 20 19 19 19 18 15 13 13 14 14 13 12 11 10 9 10 11 11 11 11 12 12 10 9 8 7 7 8 9 9 9 9 9 9 7 5 4 4 1 2 3 3 5 9 11 11 14 18 19
4 5 6 7 8 10 10 9 11 13 14 15 15 15 14 14 13 12 12 12 11 12 13 12 12 13 13 14 14 15 16 17 17 17 18 18 18 18 18 18 17 16 14 14 14 13 13 12 11 11 11 10 11 11 11 11 12 12 12 11 9 8 8 8 9 9 8 7 6 5 4 5 5 4 4 4 5 6 8 10 10 11 14 18 19
2 3 5 6 8 9 9 9 11 13 14 14 15 15 14 13 12 12 12 11 10 10 10 11 10 10 10 11 11 12 13 13 13 14 16 16 16 16 16 16 16 15 15 14 14 13 12 12 11 11 10 10 9 9 10 10 10 11 11 10 9 8 8 8 8 8 7 5 3 2 4 5 5 5 6 6 8 10 12 13 13 15 17 20 22
1 1 2 3 5 7 7 7 10 11 12 13 14 15 15 14 12 11 12 11 10 9 8 8 9 9 9 9 8 8 9 10 10 11 12 13 14 14 14 14 14 14 14 14 14 13 13 12 12 12 11 11 10 10 11 11 11 11 11 10 10 9 8 8 7 6 4 2 2 3 4 5 5 5 6 6 8 11 14 15 16 17 19 21 23
Wind_Direction
211 205 201 201 201 195 188 182 179 176 173 174 175 180 187 189 188 186 188 189 182 175 171 170 172 173 173 175 177 180 181 181 182 183 182 180 175 171 169 167 163 160 158 159 165 174 186 201 224 224 218 338 349 333 330 339 352 354 357 6 7 3 360 357 358 357 352 333 329 333 333 325 320 323 324 325 325 328 332 328 320 312 310 313 306
213 204 198 198 195 187 184 184 184 181 177 177 176 180 186 191 193 191 192 193 189 185 181 175 174 175 175 179 182 181 182 184 186 189 188 185 179 175 176 175 171 167 162 162 172 186 210 230 241 235 251 317 330 326 328 337 352 358 2 9 3 5 7 2 8 11 20 30 350 339 344 341 343 343 338 337 326 324 328 323 320 315 305 309 315
215 210 198 193 188 183 185 189 190 185 178 178 178 181 185 190 197 197 195 196 195 193 190 185 181 179 178 180 181 178 182 186 187 189 190 189 185 183 184 184 183 178 172 177 189 215 230 227 235 237 278 313 315 312 324 336 350 358 7 15 4 2 12 11 19 25 32 35 344 340 355 355 43 29 5 10 17 2 348 329 321 318 308 306 311
213 213 203 192 183 182 188 190 188 183 180 182 183 184 186 192 200 200 197 199 199 198 196 193 190 186 185 185 183 181 187 191 190 192 194 195 192 190 191 192 193 190 186 197 217 236 225 209 221 247 291 305 301 304 324 336 347 359 7 22 17 5 10 14 22 29 33 23 327 349 349 312 47 15 355 12 31 22 13 350 322 310 300 296 295
211 212 203 191 184 185 189 187 186 186 188 191 190 188 188 195 202 200 197 199 200 199 197 194 191 188 187 185 185 188 191 195 198 200 200 200 200 198 198 200 200 202 206 218 232 231 204 196 224 261 291 293 287 305 326 324 337 0 8 24 25 18 15 7 25 38 45 59 38 355 324 324 29 358 342 4 22 14 17 12 353 317 276 275 280
213 213 201 192 190 187 185 184 187 192 196 197 194 192 191 196 202 202 198 199 199 199 197 194 190 188 186 181 181 185 188 196 202 203 203 203 204 204 206 208 208 211 219 227 233 223 200 203 234 258 278 277 273 284 301 309 323 353 6 18 19 25 24 7 22 42 49 62 61 41 22 7 349 344 338 347 11 17 19 25 30 29 340 280 283
213 215 204 197 194 187 185 186 191 196 198 196 193 195 197 200 204 204 201 199 197 198 198 196 193 193 192 188 186 188 190 202 207 207 208 210 212 214 217 221 221 220 224 229 232 227 219 221 235 251 262 263 267 269 269 275 292 323 341 5 1 12 23 15 14 23 31 49 55 59 45 34 12 344 340 335 337 23 21 24 37 42 45 33 0
210 209 204 201 196 191 191 191 194 198 194 191 194 198 202 206 207 205 203 201 198 199 198 198 198 199 199 198 197 198 199 207 212 213 215 218 221 224 225 228 231 229 229 232 234 235 236 236 240 246 250 254 257 253 247 250 260 281 291 323 347 351 7 17 16 14 12 22 37 60 59 53 52 37 2 347 327 340 10 23 28 34 47 44 37
208 206 204 201 198 197 198 195 195 195 190 193 197 198 202 207 208 207 206 204 201 201 200 201 203 205 206 206 207 210 211 213 215 216 219 221 224 228 229 230 234 234 233 233 234 237 242 245 247 247 245 247 249 246 241 241 246 261 278 287 313 330 336 359 13 12 7 3 13 32 56 57 53 46 26 350 333 330 341 2 8 4 31 39 33
208 209 206 202 200 200 200 197 194 192 191 194 194 194 199 205 207 208 208 206 204 204 203 203 205 208 210 213 217 219 220 221 221 222 223 224 226 230 233 233 233 233 232 232 234 238 243 246 248 248 248 246 244 244 241 240 244 256 270 267 274 297 308 324 339 348 359 4 6 22 43 33 356 331 309 312 317 320 312 316 342 344 344 13 19
204 208 206 204 204 201 199 196 193 191 189 188 189 190 195 201 206 208 209 209 207 206 206 205 205 208 212 217 222 226 227 228 228 228 228 229 230 232 233 233 233 232 231 232 234 236 241 245 247 248 251 249 245 246 246 246 250 258 262 260 264 277 281 290 295 294 320 337 348 18 23 349 299 282 309 326 319 318 314 308 326 339 328 337 358
197 200 201 200 200 196 195 195 191 188 185 185 189 189 191 199 204 206 209 210 210 209 208 207 207 208 212 217 223 227 230 233 234 234 233 232 231 231 232 231 232 233 232 234 235 237 241 244 247 250 251 250 249 249 248 247 250 258 261 260 263 270 270 274 278 278 282 287 304 340 329 301 274 269 287 311 324 333 324 306 322 337 319 320 345
193 195 195 193 194 192 192 191 185 184 187 188 190 189 190 197 203 205 208 210 211 210 209 209 209 209 211 216 221 226 229 234 239 239 238 235 232 231 232 231 232 234 234 235 235 236 239 243 245 247 245 247 251 251 249 248 250 255 258 260 262 264 263 264 268 270 268 273 284 290 296 292 276 273 278 284 299 313 297 294 319 326 306 318 341
191 193 194 190 190 191 191 187 184 188 192 191 190 190 189 193 201 205 207 210 212 212 211 211 212 212 213 215 219 222 225 232 237 238 239 238 233 232 233 233 234 235 236 238 237 234 236 242 245 243 239 244 252 252 249 249 250 251 253 258 261 260 259 261 263 263 263 266 274 278 281 283 282 278 274 278 280 281 289 298 313 310 301 314 333
189 191 196 193 188 188 187 184 186 191 192 191 191 190 188 192 199 204 206 209 211 213 213 213 214 215 216 217 218 219 222 228 233 236 239 239 236 235 237 236 237 239 242 245 243 237 238 243 244 238 236 244 255 255 249 246 246 249 251 256 262 263 264 264 260 259 262 266 270 275 275 273 277 279 275 277 277 277 286 293 301 307 306 316 324
189 194 198 195 189 187 187 187 190 191 190 191 191 190 191 194 200 204 207 209 210 212 214 215 216 217 218 218 218 219 221 224 229 234 236 237 236 238 241 242 241 243 247 249 245 240 241 243 241 235 236 246 254 255 250 245 245 248 251 255 260 262 265 265 260 259 263 265 269 273 274 271 270 274 273 275 275 271 268 263 271 292 303 315 321
182 192 198 194 190 189 190 190 191 192 191 191 192 193 196 197 200 203 205 207 210 212 214 215 216 218 220 220 219 219 220 221 225 230 232 233 237 240 242 245 245 246 248 246 244 244 244 242 238 234 238 248 253 253 250 248 248 248 251 256 258 257 260 260 256 258 262 264 266 270 272 270 267 266 265 266 272 270 252 240 250 261 265 287 303
179 190 195 193 191 193 194 195 194 193 193 195 195 197 199 200 202 201 201 205 209 211 212 213 215 217 219 221 220 220 219 218 221 225 227 231 237 241 242 243 246 249 249 247 245 249 251 246 238 234 240 250 252 251 251 251 251 250 252 257 259 258 260 260 257 259 263 264 264 266 266 265 261 258 259 260 262 261 250 245 251 249 246 257 277
196 204 202 197 195 194 194 196 195 193 195 197 198 198 199 202 203 202 204 207 209 208 208 211 214 215 217 220 221 221 220 219 222 226 228 230 235 239 242 244 247 250 251 250 247 250 254 249 239 236 242 250 251 251 252 252 252 252 254 256 258 260 261 262 261 261 262 263 264 265 264 263 259 253 253 252 247 246 248 250 252 250 249 253 259
117 99 137 237 218 208 200 196 195 194 196 198 198 198 200 201 202 203 205 206 205 204 205 209 212 212 216 219 221 222 222 221 224 228 230 231 234 237 239 242 245 249 250 249 248 249 250 247 239 235 239 245 248 248 248 250 252 254 256 257 256 261 263 262 261 260 260 263 265 267 266 265 262 254 250 248 242 241 246 253 256 254 254 254 248
131 137 140 82 43 228 211 200 196 194 196 198 197 198 200 199 201 203 204 204 204 203 205 209 210 211 215 220 221 222 222 221 223 227 229 231 234 236 237 238 241 246 247 248 249 249 249 246 239 235 238 242 247 249 248 250 254 257 261 261 259 261 264 263 262 260 260 262 265 267 268 268 266 259 254 252 249 248 249 253 257 256 256 253 244
153 156 162 144 143 176 184 193 197 194 193 197 198 197 199 200 201 202 205 208 207 205 207 210 210 211 215 219 220 220 221 220 220 223 225 227 231 235 238 237 236 241 245 247 248 247 247 247 242 240 243 245 250 254 252 249 252 257 260 259 256 258 261 262 263 262 262 264 266 266 267 268 267 262 258 256 255 253 254 257 259 259 260 254 245
150 141 151 149 146 153 166 178 185 190 192 195 198 199 200 200 200 202 206 210 211 210 212 212 212 214 216 217 217 217 219 219 217 219 221 222 226 231 235 235 231 233 240 245 245 241 243 248 245 245 248 249 252 255 253 250 254 258 259 256 253 254 255 258 260 261 262 264 265 264 264 266 267 265 263 260 258 257 258 262 262 263 265 256 248
140 109 101 122 135 145 158 167 172 185 195 196 196 199 199 197 198 200 202 206 208 209 212 214 216 220 220 218 217 217 218 217 216 218 220 221 223 225 229 231 228 229 234 241 242 238 240 246 244 245 249 250 251 252 251 250 253 256 257 256 255 253 253 255 258 261 261 261 261 261 260 261 264 268 267 262 258 257 258 262 263 262 264 256 251
121 109 71 94 123 127 136 165 172 181 191 193 195 198 199 200 201 202 204 206 207 209 210 211 215 222 225 226 225 221 219 217 218 219 220 221 222 223 225 227 228 229 231 234 237 235 235 239 238 238 243 247 249 250 249 249 250 252 254 253 252 252 252 254 258 260 261 260 259 259 260 260 261 264 266 263 259 258 259 259 258 258 257 256 257
63 74 67 42 74 113 137 187 189 185 187 190 199 202 202 205 206 208 211 209 208 210 207 204 212 222 224 229 234 231 225 221 220 221 222 221 221 222 223 224 226 229 229 228 229 229 231 235 236 235 237 243 246 247 248 249 248 249 252 251 250 251 252 254 256 257 258 257 257 258 259 259 259 262 264 264 262 261 259 257 258 259 258 261 263
50 53 53 38 23 47 99 178 218 233 216 205 208 207 206 209 210 213 215 211 212 213 206 208 222 225 219 224 233 236 236 232 225 224 224 223 222 222 222 223 224 225 227 226 224 225 230 233 237 237 237 241 246 246 247 250 249 247 249 250 249 249 249 252 253 254 254 255 255 257 258 257 258 259 261 263 262 261 259 258 260 261 261 264 264
55 51 50 46 32 22 21 12 306 295 293 278 262 246 228 218 215 216 215 212 215 216 210 213 223 223 220 223 226 228 230 232 230 227 225 224 224 224 221 221 222 222 225 226 224 225 229 233 235 238 241 243 247 248 248 250 251 249 247 247 248 249 249 251 252 252 253 255 255 254 255 255 255 257 258 260 260 259 260 261 261 262 265 266 264
56 53 49 47 42 36 24 6 346 326 315 298 285 279 269 253 235 225 220 216 216 216 214 216 218 220 223 223 223 227 228 227 227 229 231 230 225 223 222 220 221 224 226 227 227 227 229 232 235 240 246 247 246 246 248 250 252 251 249 247 246 248 249 249 250 252 253 255 255 254 253 252 255 259 260 260 259 259 260 263 262 263 267 266 261
51 51 48 45 41 37 28 14 5 358 347 324 296 282 274 268 262 247 230 225 222 219 219 219 218 223 226 224 225 233 233 230 228 230 233 233 228 224 222 220 221 224 225 227 230 232 233 235 236 242 249 249 246 250 254 255 255 254 254 252 250 251 253 251 251 253 254 255 254 253 252 253 257 260 261 261 261 262 263 265 265 264 263 261 260
47 45 42 39 36 32 25 17 12 8 3 355 336 309 284 269 264 261 253 243 235 229 224 222 222 226 228 224 225 233 235 232 229 227 229 230 230 226 222 220 221 222 224 229 233 235 237 237 237 241 245 245 248 258 263 263 261 260 258 255 254 254 255 255 252 252 254 255 255 254 254 256 258 259 260 263 266 269 269 269 269 266 262 260 257
42 41 39 37 34 31 27 20 14 10 7 4 354 338 315 289 273 267 262 256 248 240 233 229 228 230 229 224 223 231 238 236 230 229 229 226 226 227 225 223 222 221 224 229 231 233 236 238 238 240 245 245 250 261 268 269 268 267 262 257 253 250 251 252 250 251 253 254 255 257 256 256 257 256 258 263 272 277 278 277 273 267 264 265 260
40 38 37 37 34 31 29 23 19 17 15 13 8 356 338 314 290 276 267 256 247 243 239 237 236 235 233 229 225 225 230 231 228 231 233 227 220 223 227 227 226 226 228 229 229 230 235 238 237 240 244 246 250 260 270 273 273 272 268 260 253 251 252 252 250 251 254 255 256 257 257 259 259 257 259 262 264 267 272 277 274 267 261 260 259
40 38 37 35 31 30 26 23 24 25 23 23 23 19 13 1 338 308 286 265 251 244 239 238 237 233 229 230 228 221 219 222 225 230 237 235 222 214 219 225 229 231 230 229 228 231 235 239 240 243 247 251 255 263 271 275 274 272 270 263 256 253 253 252 251 252 254 256 255 255 258 259 257 257 263 264 261 259 261 266 269 266 256 250 253
41 39 36 32 30 30 28 25 25 27 28 30 31 33 36 36 33 26 12 342 298 265 248 239 232 226 221 220 218 210 206 213 221 226 234 237 230 220 220 226 233 237 236 236 236 234 237 241 242 243 247 250 254 261 272 280 276 270 265 261 256 251 248 247 249 252 254 256 256 255 257 258 259 263 267 268 265 262 260 261 262 258 247 240 247
45 42 37 31 30 31 32 30 28 29 33 34 37 42 47 47 45 43 41 34 19 346 282 243 225 218 213 208 206 199 193 198 205 208 217 228 232 228 224 226 233 241 249 260 259 250 243 245 244 241 241 244 247 254 272 290 283 268 258 256 254 251 250 249 249 251 254 257 258 257 257 259 264 268 271 271 268 263 261 263 261 252 241 236 242
52 50 44 38 36 37 37 37 35 34 35 37 41 48 52 50 47 46 48 48 42 32 20 337 209 204 192 182 183 182 174 174 181 190 206 225 234 234 232 235 237 235 242 261 273 273 266 262 260 254 248 248 251 256 269 290 286 267 253 249 250 250 251 252 252 253 256 258 259 259 260 261 265 267 268 269 265 256 253 256 255 249 241 230 228
55 55 52 45 42 42 43 44 43 39 38 42 48 52 52 49 46 46 48 48 45 41 41 47 58 95 130 134 143 149 146 148 154 161 175 201 224 239 255 258 251 242 234 237 257 276 282 282 281 276 265 255 252 255 259 270 281 278 264 253 252 253 254 255 256 257 259 261 262 262 262 261 262 264 265 264 260 253 248 248 247 244 240 228 220
56 58 57 52 50 49 48 46 43 39 40 48 54 55 53 49 46 47 48 46 44 45 45 47 54 64 80 93 105 116 122 129 129 123 127 149 213 264 276 264 249 247 249 251 264 272 273 273 274 275 274 273 269 263 259 258 268 278 280 271 265 263 261 261 261 261 262 264 266 267 266 263 262 263 264 264 262 257 250 245 239 234 232 230 225
56 57 59 59 57 54 49 43 40 39 40 48 56 57 53 50 49 48 47 46 49 53 54 54 58 61 63 67 77 87 91 97 97 91 85 71 25 311 296 282 261 252 255 256 256 267 273 273 267 266 275 281 272 263 264 264 266 272 277 276 272 269 267 268 268 266 267 268 268 268 268 265 262 262 263 264 263 258 250 243 235 228 224 227 229
56 54 57 62 60 56 52 48 48 49 44 46 56 57 52 52 53 48 43 51 62 66 65 64 64 63 61 61 63 68 70 70 69 69 67 59 41 351 312 292 277 269 265 251 235 247 261 264 266 272 275 271 260 257 262 266 269 273 277 278 276 272 270 270 269 268 268 268 268 267 268 269 268 266 265 265 264 260 251 241 234 228 225 226 230
56 52 53 59 61 58 54 51 52 55 52 50 56 56 52 53 54 48 47 60 70 71 70 69 68 65 63 62 60 60 61 60 58 57 57 54 46 28 356 310 289 285 278 265 249 243 244 239 242 247 237 230 241 253 258 266 274 279 280 278 275 270 268 269 270 270 269 269 270 270 271 274 275 274 271 266 265 265 255 240 234 233 230 230 230
54 48 46 51 58 58 54 52 53 55 56 55 56 56 54 53 52 53 61 69 70 70 69 68 66 63 60 59 58 56 57 56 55 54 53 52 50 43 34 23 13 356 299 263 229 209 197 177 164 163 160 156 157 175 257 295 304 306 302 296 287 280 277 276 276 277 275 274 274 273 271 272 272 273 271 264 262 265 255 238 233 231 229 230 229
59 50 44 46 53 54 54 54 53 53 55 56 56 55 53 51 52 58 66 69 66 64 64 62 61 59 56 53 51 51 51 51 49 47 46 48 49 47 43 41 40 44 78 107 126 143 139 127 116 106 100 97 94 91 86 75 61 45 31 18 359 342 332 319 306 300 296 291 288 285 281 276 270 267 267 263 260 259 249 238 230 223 219 220 218
63 54 49 48 49 49 50 53 51 50 51 52 54 55 52 48 51 57 59 59 59 58 59 59 59 58 55 52 50 48 47 46 46 46 46 48 53 57 58 60 62 66 77 85 86 90 93 92 88 84 83 82 81 79 77 73 65 54 44 32 14 360 356 348 330 318 313 306 304 302 299 293 282 272 266 262 257 250 242 236 231 222 213 207 202
64 54 47 48 50 46 45 47 46 46 47 47 50 54 51 49 53 56 55 53 54 56 60 62 62 61 59 56 52 49 47 46 46 48 49 52 58 61 63 67 70 71 74 79 81 82 82 80 78 79 79 75 72 69 65 58 50 41 28 13 353 340 342 337 324 319 318 313 311 310 308 308 304 288 270 259 250 241 234 228 221 212 201 195 193
71 62 52 53 55 50 46 43 40 39 41 43 47 49 49 51 55 57 55 54 54 58 64 66 64 61 59 58 57 55 53 53 52 52 54 57 60 61 61 61 63 64 67 73 78 82 83 79 73 71 68 62 55 49 41 30 19 11 7 358 343 331 329 329 327 324 319 313 314 316 310 308 315 310 282 255 241 235 228 217 209 200 192 188 187
84 74 65 60 58 55 52 47 42 39 39 41 43 44 45 49 53 58 60 59 58 60 64 65 63 60 60 61 61 60 60 59 58 56 56 58 60 62 62 62 61 61 61 64 67 68 67 64 59 51 41 33 28 22 16 8 2 358 356 353 347 339 335 336 337 333 321 312 316 326 328 326 332 341 321 204 180 164 180 189 191 186 177 173 172
92 78 71 67 62 60 57 51 45 44 43 44 44 43 43 46 49 56 61 62 61 63 64 63 62 61 61 61 61 61 63 65 64 63 62 62 62 63 65 65 63 61 58 56 56 54 50 46 41 35 29 24 19 15 10 5 1 355 349 345 343 342 343 346 347 341 331 320 313 326 0 25 29 36 68 104 119 127 144 159 160 149 145 149 151
109 76 69 68 64 61 60 54 48 46 45 46 45 43 43 44 46 52 58 57 57 61 62 61 61 59 59 59 59 58 60 64 69 71 72 72 69 66 68 69 66 61 56 51 49 48 46 42 38 35 33 28 21 17 15 13 10 3 356 351 351 352 353 356 357 352 343 330 312 336 14 33 45 57 70 84 104 121 131 136 134 132 134 138 139
159 69 52 54 57 58 61 57 50 45 44 43 41 40 41 42 42 46 52 54 55 56 57 57 57 56 55 55 56 55 54 59 69 75 80 84 83 77 72 70 66 61 56 52 49 49 49 49 48 47 45 40 35 33 29 21 14 11 12 13 9 4 4 6 4 1 2 356 7 46 51 51 58 70 82 94 106 115 118 119 118 118 123 128 131